EUTELSAT KONNECT VHTS

Last updated on Thu Nov 21 2024 00:02:44 GMT+0000 (Coordinated Universal Time)

1 53765U 22110A 24325.00988929 .00000018 00000+0 00000+0 0 9990 2 53765 0.0586 103.5285 0002913 122.3472 199.9233 1.00267559 1076
UTC large
Height (km)
Speed (km/s)
/
Latitude / Longitude
Inclination (degrees)
Orbital Period (minutes)
Azimuth
Elevation
Range (km)
Doppler Factor

Next 0 passes for location: London (51.5072 / 0.1276)

Sorry there are no passes over London.